User: anonymous
Location: Unspecified
(0.0000°N, 0.0000°E)
Time: 17:22:20
(UTC+02:00)
Language:

Cosmos 2263 Rocket - Orbit

View from above orbital plane
View from above orbital plane
View from above satellite
View from above satellite

Ground track
Ground track

The orbit data is extracted from the following two-line orbital elements,

1 22803U 93059B   14204.84950996 -.00000179  00000-0 -65505-4 0  3248
2 22803 070.9928 321.5540 0017803 206.3875 153.6343 14.16672262 78245
Epoch (UTC): 23 July 2014 20:23:17
Eccentricity: 0.0017803
inclination: 70.9928°
perigee height: 824 km
apogee height: 849 km
right ascension of ascending node: 321.5540°
argument of perigee: 206.3875°
revolutions per day: 14.16672262
mean anomaly at epoch: 153.6343°
orbit number at epoch: 7824

The dashed part of the orbit path shows where the satellite is in the earth's shadow,  

DLR